Regional Weather Roundup
Issued by NWS

Home | Current Version | Previous Version | Text Only | Print | Product List | Glossary On
Versions: 1 2 3 4 5 6 7 8 9 10 11 12 13 14 15 16 17 18 19 20 21 22 23 24 25 26 27 28 29 30 31 32 33 34 35 36 37 38 39 40 41 42 43 44 45 46 47 48 49 50
000
ASUS45 KTFX 261210
RWRMT
MONTANA REGIONAL WEATHER ROUNDUP
NATIONAL WEATHER SERVICE GREAT FALLS MT
500 AM MST SUN FEB 26 2017

NOTE: "FAIR" INDICATES FEW OR NO CLOUDS BELOW 12000 FEET WITH NO
SIGNIFICANT WEATHER AND/OR OBSTRUCTIONS TO VISIBILITY.

MTZ001>007-043-261300-
WEST OF THE DIVIDE

CITY           SKY/WX    TMP DP  RH WIND       PRES   REMARKS
KALISPELL      LGT SNOW  26  23  88 SE9       29.73F FOG     WCI  17
MISSOULA       CLOUDY    24  23  96 CALM      29.76F
BUTTE          CLOUDY    21   8  57 CALM      29.69F
MULLAN PASS    LGT SNOW  16  14  92 SW8       29.57F FOG     WCI   5
ANACONDA         N/A     21   9  58 S10G17    29.70S WCI  10
DEER LODGE       N/A     23  12  63 S7        29.72F WCI  15
EUREKA           N/A     25  21  86 SE8       29.74S WCI  16
HAMILTON         N/A     28  14  54 S14       29.74F WCI  17
LIBBY            N/A     25  25 100 CALM      29.72S
RONAN            N/A     25  22  88 CALM      29.78F
$$

MTZ008-052>055-261300-
SOUTHWEST MONTANA

CITY           SKY/WX    TMP DP  RH WIND       PRES   REMARKS
BOZEMAN        CLOUDY    23  15  71 E5        29.76F
DILLON         CLOUDY    19   6  57 SW12      29.72F WCI   7
W YELLOWSTONE  CLOUDY    10   7  85 SW13      29.76F FOG     WCI  -5
ENNIS          CLOUDY    19   7  58 S16       29.80S WCI   5
THREE FORKS      N/A     26 -70   1 S8        29.78F WCI  18
$$

MTZ009-010-012-014-046-048-049-054-261300-
EAST SLOPES AND CENTRAL MONTANA

CITY           SKY/WX    TMP DP  RH WIND       PRES   REMARKS
CUT BANK       CLOUDY    21  19  92 N6        29.69S FOG     WCI  13
GREAT FALLS    LGT SNOW  24  20  84 NW10      29.71S FOG     WCI  14
MALMSTROM AFB  LGT SNOW  24  23  96 W9        29.73S WCI  15
HELENA         CLOUDY    26  17  68 W3        29.74S
AUGUSTA        CLOUDY    24  10  54 W6        29.66S WCI  17
BOWMANS CRNR   CLOUDY    23  13  67 S10       29.67F WCI  12
CHOTEAU          N/A     27  12  54 N6G14     29.71S WCI  20
CONRAD           N/A     23  21  92 NW6       29.75S WCI  16
POWER          LGT SNOW  23  20  89 NW8       29.70S WCI  13
RAYNESFORD     LGT SNOW  23  19  84 W20       29.70R WCI   9
ULM            FLURRIES  26  17  67 MISG      29.72S
$$

MTZ011-013-016-021-045-047-050-051-261300-
NORTH CENTRAL MONTANA

CITY           SKY/WX    TMP DP  RH WIND       PRES   REMARKS
HAVRE          CLOUDY    25  21  85 NW12      29.71R WCI  14
LEWISTOWN      CLOUDY    23  16  74 NW16      29.66S WCI  10
N BAR RANCH    LGT SNOW  21  16  79 W7        29.67R WCI  13
CHINOOK          N/A     25  19  80 W12       29.70R WCI  14
DENTON         LGT SNOW  24  22  91 SW7       29.66S WCI  16
FORT BENTON      N/A     27  21  80 MISG      29.75R
GEYSER         LGT SNOW  22  20  91 W18G24    29.67S WCI   8
GRASS RANGE    FLURRIES  24  18  76 W16       29.63S WCI  11
JUDITH GAP     CLOUDY    22  11  63 W10       29.65R WCI  11
ROY            FLURRIES  24  21  89 MISG      29.65R
STANFORD       MOCLDY    22  16  78 NW15      29.66R WCI   8
WINIFRED       FLURRIES  24  22  93 W14G21    29.67R WCI  11
$$

MTZ017>020-022>027-061-062-261300-
NORTHEAST MONTANA

CITY           SKY/WX    TMP DP  RH WIND       PRES   REMARKS
GLASGOW        LGT SNOW  18  14  84 E6        29.65S FOG     WCI  10
JORDAN           N/A     26  22  84 W10       29.66S WCI  16
SIDNEY         CLOUDY    17  13  84 E3        29.70R
WOLF POINT     CLOUDY    10   8  92 CALM      29.69R
PLENTYWOOD       N/A     10   9  92 CALM      29.68S
POPLAR           N/A     12  10  92 NE6       29.69S WCI   3
SCOBEY           N/A     12   4  70 CALM      29.66R
$$

MTZ028>42-056>058-261300-
SOUTHCENTRAL AND SOUTHEAST MONTANA

CITY           SKY/WX    TMP DP  RH WIND       PRES   REMARKS
BAKER          CLEAR     21  13  71 W14       29.65S WCI   8
BILLINGS       CLOUDY    28  13  53 W17G26    29.71F WCI  16
LIVINGSTON     CLOUDY    22   7  52 SW28G43   29.71F WCI   4
MILES CITY     CLOUDY    26  17  68 W8        29.69R WCI  18
BIG TIMBER     CLOUDY    21   9  58 W23G33    29.72R WCI   5
EKALAKA          N/A     20   9  62 SW9       29.66  WCI   9
FORSYTH          N/A     27  14  59 W8        29.71R WCI  18
HARLOWTON      MOCLDY    23  16  75 W25G33    29.66S WCI   6
LAUREL           N/A     20   7  57 SW6       29.72R WCI  12
ROUNDUP          N/A     27  11  51 W10       29.64S WCI  17
$$

REGIONAL REPORTS...DAKOTAS

CITY           SKY/WX    TMP DP  RH WIND       PRES   REMARKS
WILLISTON      CLOUDY    10   7  87 CALM      29.71S
MINOT          CLOUDY     0  -5  79 SW8       29.72F WCI -14
DICKINSON      CLOUDY    14  11  87 E7        29.65R WCI   4
BEACH            N/A    N/A N/A N/A MISG        N/A
CROSBY           N/A     10   9  92 SW7       29.72S WCI   0
TIOGA          CLOUDY     1   0  92 CALM      29.70S
WATFORD CITY   MOCLDY    14  12  92 SE7       29.70S WCI   4
BISMARCK       CLOUDY    14   8  77 NW3       29.78R
GRAND FORKS    CLEAR      2  -4  76 NW6       29.78R WCI  -9
FARGO          CLOUDY    15   9  76 N17       29.76R WCI  -1
BUFFALO SD       N/A     18  11  74 W10       29.61R WCI   6
RAPID CITY     CLEAR     16   9  74 W5        29.74R
$$

REGIONAL REPORTS...WYOMING/IDAHO/WASHINGTON

CITY           SKY/WX    TMP DP  RH WIND       PRES   REMARKS
GILLETTE       CLEAR     17   5  59 SW13      29.70S WCI   4
SHERIDAN       CLEAR     13   4  67 S8        29.72R WCI   2
BUFFALO WY     CLEAR     12  -2  53 W5        29.68S
CODY           CLEAR     22   2  42 W22G31    29.71R WCI   6
YELLOWSTONE LA   N/A      7   2  80 VRB3      29.72S
IDAHO FALLS    CLOUDY     7   5  91 W7        29.89F WCI  -5
SALMON         CLOUDY    27   9  46 SW9       29.79S WCI  17
BOISE          MOCLDY    30  19  63 SE12      29.88F WCI  20
SPOKANE        LGT SNOW  28  25  88 SW7       29.75S FOG     WCI  21
$$

REGIONAL REPORTS...ALBERTA

CITY           SKY/WX    TMP DP  RH WIND       PRES   REMARKS
EDMONTON       CLOUDY    14   9  79 N17G23    29.82R WCI  -3
CALGARY        CLOUDY    16  10  79 N17       29.76R FOG     WCI   0
LETHBRIDGE     LGT SNOW  21  18  86 N12       29.75S WCI   9
MEDICINE HAT   FLURRIES  19  16  86 NW14      29.75R WCI   6
WATERTON GATE    N/A     19  16  86 E7          N/A  WCI  10
CARDSTON         N/A     19  18  93 N6          N/A  WCI  11
MILK RIVER       N/A     21  19  93 N18         N/A  WCI   6
$$

REGIONAL REPORTS...SASKATCHEWAN

CITY           SKY/WX    TMP DP  RH WIND       PRES   REMARKS
SWIFT CURRENT  LGT SNOW  18  18 100 W8        29.63R WCI   7
REGINA         CLOUDY    10   7  85 S3        29.66S
SASKATOON      PTCLDY     7   3  85 NW7       29.70R WCI  -5
VAL MARIE        N/A     16  12  86 NE5         N/A
ROCKGLEN         N/A      7   5  92 S6          N/A  WCI  -3
ASSINIBOIA       N/A     18  10  73 N15G23      N/A  WCI   3
$$



USA.gov is the U.S. government's official web portal to all federal, state and local government web resources and services.